User: anonymous   Login
Location: Unspecified
(0.0000°N, 0.0000°E)
Time: 12:49:31
(UTC+00:00)
Language:

DMSP B5D1-2 - Orbit

View from above orbital plane
View from above orbital plane
View from above satellite
View from above satellite

Ground track
Ground track

The orbit data is extracted from the following two-line orbital elements,

1 10033U 77044A   18197.88310680 0.00000000  00000-0  00000-0 0    02
2 10033  99.0963  74.4883 0038000 318.1658  41.8341 14.29230121    08
Epoch (UTC): 16 July 2018 21:11:40
Eccentricity: 0.0038000
inclination: 99.0963°
perigee height: 767 km
apogee height: 821 km
right ascension of ascending node: 74.4883°
argument of perigee: 318.1658°
revolutions per day: 14.29230121
mean anomaly at epoch: 41.8341°
orbit number at epoch: 0

The dashed part of the orbit path shows where the satellite is in the earth's shadow,  

DLR